[[{"header":{"parameterUnit":"m.s-1","parameterCategory":1,"la1":30.2991,"la2":30.254,"lo1":-89.0895,"lo2":-89.0444,"dy":0.0017,"dx":0.0017,"nx":28,"ny":28,"refTime":"2024-03-29T21:00:00:Z","depth":0,"parameterNumber":2,"parameterNumberName":"U-component_of_WINDS"},"data":[0,0,0,0,0,0,0,0,0,0,0,0,0,0,0,0,0,0,0,0,0,0,0,0,0,0,0,0,0,0,0,0,0,0,0,0,0,0,0,0,0,0,0,0,0,0,0,0,0,0,0,0,0,0,0,0,0,0,-1.1864,-1.1863,0,-1.1832,-1.1832,-1.1831,-1.1785,-1.1785,-1.1784,-1.1783,-1.1751,-1.1751,-1.1751,0,0,0,0,0,0,0,0,0,0,0,0,0,-1.1885,-1.1885,-1.1864,-1.1863,-1.1863,-1.1832,-1.1832,-1.1831,-1.1785,-1.1784,-1.1783,-1.1783,-1.1751,-1.1751,-1.1751,0,0,0,0,0,0,0,0,0,0,0,0,0,-1.1867,-1.1885,-1.1864,-1.1836,-1.1833,-1.1832,-1.1832,-1.1831,-1.1786,-1.1784,-1.1783,-1.1782,-1.1751,-1.1751,-1.1751,-1.1774,0,0,-1.175,-1.175,0,0,0,0,0,0,0,0,-1.1868,-1.1866,-1.1841,-1.1838,-1.1835,-1.1811,-1.1827,-1.1812,-1.1786,-1.1804,-1.1783,-1.1782,-1.1772,-1.177,-1.1767,-1.1772,-1.1771,-1.175,-1.175,-1.175,-1.175,0,0,0,0,0,0,0,-1.1869,-1.1867,-1.1851,-1.184,-1.1837,-1.1826,-1.1822,-1.1824,-1.1795,-1.1802,-1.1799,-1.1796,-1.177,-1.1767,-1.1766,-1.177,-1.175,-1.175,-1.175,-1.175,-1.1794,-1.1795,0,0,0,0,0,0,-1.1874,-1.1868,-1.1852,-1.185,-1.1849,-1.1826,-1.1822,-1.182,-1.1795,-1.179,-1.1797,-1.1794,-1.1768,-1.1766,-1.1764,-1.179,-1.175,-1.175,-1.175,-1.1792,-1.1794,-1.1795,0,0,0,0,0,0,-1.1875,-1.1873,-1.1853,-1.1858,-1.1855,-1.1827,-1.1826,-1.182,-1.1817,-1.1791,-1.1785,-1.1799,-1.1767,-1.1765,-1.1772,-1.1788,-1.175,-1.175,-1.1791,-1.1793,-1.1795,-1.1841,0,0,0,0,0,0,-1.1876,-1.1874,-1.1882,-1.1859,-1.1855,-1.1861,-1.1827,-1.182,-1.1817,-1.1812,-1.1791,-1.1787,-1.1766,-1.1772,-1.1772,-1.1787,-1.1749,-1.1789,-1.1792,-1.1794,-1.1838,-1.1845,-1.185,0,0,0,0,0,-1.1877,-1.1897,-1.1883,-1.1881,-1.1865,-1.1862,-1.186,-1.1836,-1.1818,-1.1827,-1.181,-1.1787,-1.1787,-1.1773,-1.1772,-1.1788,-1.1788,-1.1791,-1.1794,-1.1836,-1.1843,-1.185,0,0,0,0,0,0,-1.1923,-1.1893,-1.1877,-1.189,-1.1879,-1.1855,-1.1864,-1.1845,-1.1838,-1.1835,-1.1804,-1.18,-1.1811,-1.18,-1.1786,-1.1809,-1.1784,-1.1787,-1.1816,-1.1823,-1.1829,-1.1832,-1.1749,0,0,0,0,0,-1.1934,-1.1935,-1.1909,-1.1923,-1.1918,-1.1892,-1.189,-1.1872,-1.186,-1.1855,-1.1839,-1.1827,-1.1824,-1.1823,-1.1819,-1.1837,-1.1831,-1.1847,-1.1853,-1.1858,-1.1861,-1.1869,-1.1876,-1.1805,-1.1805,-1.1804,0,0,-1.1958,-1.1942,-1.1944,-1.1932,-1.1921,-1.1922,-1.1889,-1.1891,-1.1892,-1.1855,-1.1861,-1.1849,-1.1834,-1.1847,-1.1852,-1.1838,-1.1879,-1.1861,-1.1866,-1.1866,-1.1873,-1.188,-1.1886,-1.1806,-1.1806,-1.1806,0,0,-1.2003,-1.199,-1.2001,-1.1991,-1.1975,-1.1958,-1.196,-1.1939,-1.1929,-1.1935,-1.1907,-1.1908,-1.1904,-1.1895,-1.1889,-1.1931,-1.191,-1.1931,-1.1962,-1.197,-1.1976,-1.1981,-1.1996,-1.2002,-1.1933,-1.1934,-1.1934,0,-1.2034,-1.2035,-1.2009,-1.2013,-1.2009,-1.1975,-1.1986,-1.1978,-1.1961,-1.1959,-1.1944,-1.1939,-1.1926,-1.1937,-1.1947,-1.1944,-1.1946,-1.1933,-1.1977,-1.1982,-1.1986,-1.2,-1.2006,-1.1936,-1.1936,-1.1936,-1.1935,0,-1.2075,-1.2076,-1.2087,-1.2072,-1.2068,-1.2076,-1.2051,-1.2051,-1.2033,-1.2018,-1.2024,-1.2009,-1.2001,-1.2002,-1.1985,-1.201,-1.2002,-1.1983,-1.1957,-1.1996,-1.2009,-1.2014,-1.194,-1.1939,-1.1938,-1.1937,0,0,-1.2148,-1.2118,-1.2123,-1.2116,-1.2096,-1.2096,-1.2103,-1.2095,-1.2096,-1.2086,-1.2091,-1.2088,-1.207,-1.2065,-1.2046,-1.2054,-1.2089,-1.2034,-1.2033,-1.2045,-1.2116,-1.213,-1.2137,-1.2075,-1.2076,-1.2076,-1.2117,0,-1.2188,-1.2197,-1.2174,-1.2188,-1.2189,-1.2158,-1.2164,-1.2152,-1.2138,-1.2137,-1.2121,-1.212,-1.2097,-1.2093,-1.2099,-1.2083,-1.2102,-1.208,-1.2079,-1.2079,-1.2084,-1.2144,-1.2159,-1.2198,-1.2122,-1.2122,-1.2123,0,-1.2237,-1.223,-1.2245,-1.2225,-1.2224,-1.2229,-1.2221,-1.222,-1.2207,-1.2196,-1.219,-1.2169,-1.2174,-1.2149,-1.2156,-1.2141,-1.2139,-1.2131,-1.2132,-1.2131,-1.2104,-1.2145,-1.221,-1.2216,-1.2131,-1.213,-1.2129,0,-1.2289,-1.2283,-1.2291,-1.2286,-1.2263,-1.2267,-1.2258,-1.2243,-1.224,-1.2233,-1.2231,-1.2225,-1.2221,-1.2217,-1.2194,-1.2178,-1.2204,-1.2177,-1.2195,-1.2196,-1.2202,-1.2202,-1.2269,-1.2201,-1.2201,-1.2201,-1.2201,0,-1.2337,-1.2347,-1.2314,-1.2319,-1.233,-1.2303,-1.2315,-1.2302,-1.229,-1.2292,-1.2264,-1.2267,-1.2238,-1.2237,-1.222,-1.2228,-1.2227,-1.2219,-1.2214,-1.2221,-1.2222,-1.222,-1.2217,-1.2202,-1.2202,-1.2202,-1.2201,0,-1.2397,-1.2374,-1.2382,-1.2359,-1.2353,-1.2363,-1.2343,-1.2347,-1.2331,-1.2335,-1.2334,-1.231,-1.2308,-1.2285,-1.2278,-1.2267,-1.2282,-1.2272,-1.2287,-1.2284,-1.2304,-1.2302,-1.2371,-1.2379,-1.2306,-1.2307,-1.2307,0,-1.2429,-1.2436,-1.2415,-1.2414,-1.2406,-1.2406,-1.2403,-1.2376,-1.2374,-1.236,-1.2366,-1.2362,-1.2357,-1.2356,-1.2338,-1.2333,-1.2323,-1.2347,-1.2322,-1.2329,-1.2323,-1.2323,-1.2324,-1.2353,-1.2353,-1.2354,-1.2355,0,-1.2489,-1.2478,-1.2474,-1.2467,-1.2465,-1.2458,-1.2449,-1.2451,-1.2422,-1.2421,-1.2419,-1.2416,-1.2409,-1.2405,-1.2397,-1.2387,-1.2367,-1.2363,-1.2367,-1.2375,-1.2383,-1.2379,-1.2302,-1.2362,-1.2361,-1.236,-1.236,-1.236,-1.2536,-1.2541,-1.2527,-1.2524,-1.2515,-1.2508,-1.2511,-1.2495,-1.2493,-1.2486,-1.247,-1.2471,-1.2457,-1.2444,-1.2436,-1.2436,-1.2424,-1.243,-1.2431,-1.2433,-1.2437,-1.2383,-1.2435,-1.2434,-1.2434,-1.2434,-1.2434,0,-1.2595,-1.2584,-1.2582,-1.2571,-1.2569,-1.2549,-1.2539,-1.2539,-1.254,-1.2529,-1.2525,-1.2523,-1.252,-1.2501,-1.2496,-1.2499,-1.249,-1.2499,-1.2499,-1.2497,-1.2449,-1.2446,-1.2507,-1.2507,-1.2507,-1.2507,-1.2507,-1.2507,-1.2626,-1.2634,-1.2621,-1.2624,-1.2613,-1.2613,-1.2609,-1.2602,-1.2594,-1.2593,-1.259,-1.2577,-1.2564,-1.2557,-1.2553,-1.2548,-1.2548,-1.256,-1.2552,-1.2507,-1.25,-1.2493,-1.2491,-1.256,-1.256,-1.26,-1.26,-1.26]},{"header":{"parameterUnit":"m.s-1","parameterCategory":1,"la1":30.2991,"la2":30.254,"lo1":-89.0895,"lo2":-89.0444,"dy":0.0017,"dx":0.0017,"nx":28,"ny":28,"refTime":"2024-03-29T21:00:00:Z","depth":0,"parameterNumber":3,"parameterNumberName":"V-component_of_WINDS"},"data":[0,0,0,0,0,0,0,0,0,0,0,0,0,0,0,0,0,0,0,0,0,0,0,0,0,0,0,0,0,0,0,0,0,0,0,0,0,0,0,0,0,0,0,0,0,0,0,0,0,0,0,0,0,0,0,0,0,0,3.7351,3.7352,0,3.7391,3.7392,3.7392,3.7367,3.7366,3.7365,3.7364,3.7401,3.7403,3.7405,0,0,0,0,0,0,0,0,0,0,0,0,0,3.7251,3.7253,3.7351,3.7352,3.7352,3.7391,3.7392,3.7392,3.7367,3.7366,3.7365,3.7363,3.74,3.7403,3.7405,0,0,0,0,0,0,0,0,0,0,0,0,0,3.7293,3.7253,3.7351,3.7345,3.7345,3.7391,3.7392,3.7392,3.7368,3.7366,3.7364,3.7363,3.7399,3.7402,3.7405,3.7459,0,0,3.7415,3.7416,0,0,0,0,0,0,0,0,3.729,3.7296,3.7345,3.7345,3.7345,3.7373,3.737,3.7415,3.7368,3.7359,3.7364,3.7362,3.7393,3.7396,3.7407,3.7461,3.7463,3.7415,3.7417,3.7418,3.7419,0,0,0,0,0,0,0,3.7288,3.7295,3.7367,3.7346,3.7346,3.7339,3.7343,3.7378,3.7385,3.7359,3.7358,3.7363,3.7392,3.7404,3.7408,3.7463,3.7415,3.7418,3.742,3.7421,3.7563,3.7565,0,0,0,0,0,0,3.7286,3.7292,3.7366,3.7368,3.7313,3.7342,3.7347,3.7365,3.7384,3.7386,3.7364,3.7362,3.74,3.7404,3.7409,3.7473,3.7418,3.7421,3.7423,3.7561,3.7563,3.7565,0,0,0,0,0,0,3.7284,3.7292,3.7364,3.733,3.7338,3.7346,3.7367,3.7367,3.7379,3.7388,3.7389,3.7376,3.7399,3.7405,3.7447,3.7474,3.7423,3.7425,3.7559,3.7562,3.7564,3.7602,0,0,0,0,0,0,3.7281,3.7292,3.7313,3.7331,3.734,3.7402,3.7369,3.7369,3.7385,3.7382,3.7399,3.74,3.7398,3.7443,3.745,3.7478,3.7428,3.7556,3.756,3.7563,3.7598,3.7606,3.7612,0,0,0,0,0,3.7277,3.7321,3.7314,3.7323,3.7367,3.7404,3.741,3.7407,3.7387,3.7408,3.7414,3.74,3.747,3.7447,3.7456,3.7484,3.7554,3.7559,3.7563,3.7595,3.7604,3.7612,0,0,0,0,0,0,3.7305,3.7323,3.7316,3.7367,3.7384,3.74,3.7426,3.7417,3.7439,3.7435,3.743,3.7434,3.7478,3.7485,3.7459,3.7537,3.7509,3.7515,3.7531,3.7539,3.7546,3.7543,3.743,0,0,0,0,0,3.7318,3.7347,3.7361,3.7405,3.7414,3.7419,3.7435,3.7431,3.7449,3.7455,3.7464,3.7481,3.7506,3.7523,3.7548,3.76,3.7603,3.7623,3.763,3.7636,3.7641,3.7669,3.7678,3.7579,3.7579,3.7579,0,0,3.7343,3.7356,3.7375,3.7411,3.7424,3.7454,3.7425,3.7457,3.7479,3.746,3.7501,3.7508,3.7526,3.7573,3.7595,3.7581,3.7669,3.7641,3.7646,3.7648,3.7674,3.7683,3.7692,3.7582,3.7582,3.7581,0,0,3.7404,3.7418,3.7456,3.747,3.7491,3.7494,3.7503,3.752,3.7525,3.7566,3.7552,3.7577,3.7622,3.7635,3.7648,3.7715,3.7703,3.7723,3.7759,3.7786,3.7794,3.7801,3.7824,3.7833,3.7728,3.7729,3.7729,0,3.7432,3.7478,3.7476,3.751,3.7526,3.7512,3.7549,3.7563,3.759,3.7601,3.7585,3.7641,3.7652,3.7702,3.7719,3.773,3.7739,3.7721,3.7793,3.78,3.7806,3.7829,3.7837,3.7731,3.7731,3.773,3.773,0,3.7512,3.7543,3.7571,3.76,3.7619,3.7654,3.7657,3.7676,3.7672,3.7676,3.7718,3.7731,3.7757,3.7769,3.7764,3.7819,3.781,3.7794,3.7765,3.7818,3.7839,3.7847,3.7734,3.7733,3.7733,3.7732,0,0,3.759,3.7618,3.7628,3.7641,3.7663,3.7687,3.7722,3.775,3.7766,3.7785,3.7814,3.7853,3.7838,3.7853,3.7849,3.7873,3.7925,3.7854,3.7854,3.7866,3.7985,3.7997,3.8007,3.7917,3.7919,3.792,3.7984,0,3.7653,3.7715,3.7715,3.7772,3.7801,3.7788,3.7818,3.7835,3.784,3.7864,3.787,3.7897,3.7876,3.7885,3.7908,3.7914,3.7949,3.7909,3.7943,3.7944,3.7938,3.8018,3.803,3.8089,3.7992,3.7993,3.7994,0,3.7733,3.7757,3.7818,3.7836,3.7848,3.7876,3.7901,3.7925,3.7943,3.7945,3.7962,3.7955,3.7989,3.7961,3.8008,3.7981,3.7994,3.7999,3.8002,3.8004,3.7972,3.8022,3.8108,3.8117,3.8007,3.8006,3.8005,0,3.7784,3.7831,3.7873,3.7885,3.7907,3.7927,3.7937,3.7954,3.797,3.7992,3.8003,3.8028,3.8041,3.806,3.806,3.8039,3.8107,3.8079,3.8109,3.8109,3.8123,3.8122,3.8212,3.8133,3.8133,3.8133,3.8133,0,3.7853,3.7891,3.7897,3.7923,3.7964,3.7963,3.8003,3.8012,3.8027,3.8053,3.8043,3.8068,3.8067,3.8091,3.8091,3.813,3.8136,3.8138,3.8137,3.8139,3.8138,3.8147,3.8142,3.8135,3.8135,3.8134,3.8134,0,3.7916,3.7922,3.7967,3.7986,3.7991,3.8021,3.8036,3.806,3.8065,3.8099,3.8106,3.8114,3.8142,3.8144,3.8177,3.8177,3.8224,3.8219,3.8218,3.8217,3.8247,3.8244,3.8345,3.8358,3.8271,3.8272,3.8273,0,3.796,3.7989,3.8011,3.8028,3.804,3.8069,3.8086,3.8086,3.8105,3.8128,3.8149,3.8177,3.82,3.8246,3.8254,3.8279,3.8274,3.8308,3.8277,3.8278,3.8274,3.8272,3.8274,3.8313,3.8314,3.8315,3.8316,0,3.8036,3.8038,3.8064,3.8091,3.8113,3.8134,3.8154,3.8168,3.8171,3.8192,3.8222,3.824,3.8274,3.8302,3.8327,3.8336,3.8326,3.8325,3.8334,3.8335,3.8333,3.8334,3.8233,3.8323,3.8322,3.8321,3.8321,3.8321,3.809,3.8115,3.8135,3.8164,3.818,3.8199,3.8222,3.8231,3.8256,3.8285,3.8284,3.8317,3.8334,3.8367,3.8378,3.8403,3.8391,3.8403,3.8406,3.8409,3.8412,3.833,3.8408,3.8407,3.8407,3.8407,3.8407,0,3.8165,3.8177,3.8205,3.8234,3.8257,3.8247,3.8269,3.8288,3.8318,3.8336,3.8359,3.8393,3.8421,3.8431,3.8457,3.8475,3.8471,3.8482,3.848,3.8482,3.8421,3.8411,3.8485,3.8485,3.8485,3.8485,3.8485,3.8485,3.8207,3.8249,3.8253,3.8302,3.8313,3.8347,3.836,3.8377,3.8392,3.8431,3.8454,3.8461,3.8476,3.8503,3.8527,3.8529,3.8539,3.8552,3.8552,3.8494,3.8486,3.8479,3.847,3.8554,3.8554,3.861,3.8611,3.8611]}]]